TimeCST,TemperatureF,Dew PointF,Humidity,Sea Level PressureIn,VisibilityMPH,Wind Direction,Wind SpeedMPH,Gust SpeedMPH,PrecipitationIn,Events,Conditions,WindDirDegrees,DateUTC
12:55 AM,35.1,23.0,61,30.37,10.0,West,6.9,-,N/A,,Clear,270,2012-11-23 06:55:00
1:55 AM,37.9,23.0,55,30.39,10.0,NW,11.5,-,N/A,,Clear,320,2012-11-23 07:55:00
2:55 AM,35.1,23.0,61,30.42,10.0,NW,11.5,-,N/A,,Clear,310,2012-11-23 08:55:00
3:55 AM,34.0,19.0,54,30.45,10.0,NNW,17.3,24.2,N/A,,Clear,330,2012-11-23 09:55:00
4:55 AM,28.9,17.1,61,30.49,10.0,NW,8.1,-,N/A,,Clear,320,2012-11-23 10:55:00
5:55 AM,26.6,12.2,55,30.49,10.0,NW,13.8,21.9,N/A,,Clear,320,2012-11-23 11:55:00
6:55 AM,25.0,12.0,58,30.55,10.0,NW,12.7,-,N/A,,Clear,320,2012-11-23 12:55:00
7:55 AM,25.0,12.0,58,30.57,10.0,NW,15.0,-,N/A,,Clear,310,2012-11-23 13:55:00
8:55 AM,26.1,12.0,55,30.59,10.0,NW,12.7,20.7,N/A,,Clear,320,2012-11-23 14:55:00
9:55 AM,28.9,12.0,49,30.61,10.0,NNW,15.0,-,N/A,,Clear,330,2012-11-23 15:55:00
10:55 AM,30.9,12.0,46,30.61,10.0,NNW,16.1,-,N/A,,Clear,330,2012-11-23 16:55:00
11:55 AM,34.0,12.9,42,30.58,10.0,NW,15.0,-,N/A,,Clear,320,2012-11-23 17:55:00
12:55 PM,36.0,12.9,39,30.56,10.0,NNW,10.4,-,N/A,,Clear,340,2012-11-23 18:55:00
1:55 PM,37.9,12.9,36,30.53,10.0,NW,11.5,-,N/A,,Clear,320,2012-11-23 19:55:00
2:55 PM,39.0,12.0,33,30.52,10.0,NNW,12.7,-,N/A,,Clear,330,2012-11-23 20:55:00
3:55 PM,39.0,12.9,34,30.51,10.0,NW,8.1,-,N/A,,Clear,320,2012-11-23 21:55:00
4:55 PM,36.0,12.9,39,30.50,10.0,NNW,8.1,-,N/A,,Clear,330,2012-11-23 22:55:00
5:55 PM,34.0,12.9,42,30.51,10.0,NW,4.6,-,N/A,,Clear,320,2012-11-23 23:55:00
6:55 PM,32.0,12.9,45,30.51,10.0,Calm,Calm,-,N/A,,Clear,0,2012-11-24 00:55:00
7:55 PM,28.9,12.9,51,30.50,10.0,Calm,Calm,-,N/A,,Clear,0,2012-11-24 01:55:00
8:55 PM,27.0,12.9,56,30.48,10.0,Calm,Calm,-,N/A,,Clear,0,2012-11-24 02:55:00
9:55 PM,25.0,12.0,58,30.47,10.0,South,4.6,-,N/A,,Clear,170,2012-11-24 03:55:00
10:55 PM,26.1,12.9,58,30.45,9.0,SSE,5.8,-,N/A,,Clear,160,2012-11-24 04:55:00
11:55 PM,27.0,12.9,56,30.42,10.0,South,5.8,-,N/A,,Clear,180,2012-11-24 05:55:00